Location: Arapaho Elementary School
(32.9607°N, 96.7625°W)
Time: 03:17:48
(UTC+00:00)

CZ-2C R/B - Pass Details

Date: 05 July 2022
Orbit: 783 x 871 km, 98.2° (Epoch: 14 August)

Event Time Altitude Azimuth Distance (km) Brightness Sun altitude
Rises 09:25:26 0° 113° (ESE) 3,422 6.1 -20.6°
Reaches altitude 10° 09:29:35 10° 82° (E) 2,504 5.9 -20.0°
Maximum altitude 09:31:24 12° 63° (ENE) 2,394 6.1 -19.7°
Drops below altitude 10° 09:33:13 10° 44° (NE) 2,516 6.4 -19.4°
Sets 09:37:24 0° 13° (NNE) 3,463 6.9 -18.8°
